Change the Weather History Date:

Monday, December 29, 2014

  Actual Average Record
Temperature  
Mean Temperature 38 °F -  
Max Temperature 48 °F 58 °F 70 °F (1956)
Min Temperature 28 °F 32 °F 11 °F (1953)
Degree Days  
Heating Degree Days 27    
Moisture  
Dew Point 13 °F    
Average Humidity 38    
Maximum Humidity 56    
Minimum Humidity 24    
Precipitation  
Precipitation 0.00 in - - ()
Sea Level Pressure  
Sea Level Pressure 30.11 in    
Wind  
Wind Speed 4 mph (NE)    
Max Wind Speed 10 mph    
Max Gust Speed -    
Visibility 10 miles    
Events      
Averages and records for this station are not official NWS values.
T = Trace of Precipitation, MM = Missing Value Source: NWS Daily Summary

Daily Weather History Graph

Daily Weather History Graph

Search for Another Location

Airport or City:

Trip Planner

Search our weather history database for the weather conditions in past years. The results will help you decide how hot, cold, wet, or windy it might be!

Date:

Astronomy

Dec. 29, 2014 Rise Set
Actual Time 6:51 AM PST 4:34 PM PST
Civil Twilight 6:22 AM PST 5:03 PM PST
Nautical Twilight 5:50 AM PST 5:35 PM PST
Astronomical Twilight 5:19 AM PST 6:06 PM PST
Moon 12:05 PM PST (12/29) 12:21 AM PST (12/29)
Length of Visible Light 10h 40m
Length of Day
9h 43m
First Quarter, 62% of the Moon is Illuminated
Dec 29
First Quarter
Jan 4
Full
Jan 13
Last Quarter
Jan 20
New
Jan 26
First Quarter

Hourly Weather History & Observations

Time (PST) Temp. Windchill Dew Point Humidity Pressure Visibility Wind Dir Wind Speed Gust Speed Precip Events Conditions
12:53 AM 30.9 °F 25.2 °F 14.0 °F 50% 30.18 in 10.0 mi NW 5.8 mph - N/A   Clear
1:53 AM 30.0 °F 26.5 °F 14.0 °F 51% 30.19 in 10.0 mi WNW 3.5 mph - N/A   Clear
2:53 AM 30.0 °F 25.2 °F 12.9 °F 49% 30.19 in 10.0 mi NNW 4.6 mph - N/A   Clear
3:53 AM 30.0 °F 24.1 °F 14.0 °F 51% 30.19 in 10.0 mi WNW 5.8 mph - N/A   Clear
4:53 AM 28.9 °F - 14.0 °F 54% 30.19 in 10.0 mi Calm Calm - N/A   Clear
5:53 AM 28.0 °F 24.2 °F 14.0 °F 56% 30.19 in 10.0 mi West 3.5 mph - N/A   Clear
6:53 AM 28.0 °F - 14.0 °F 56% 30.22 in 10.0 mi Calm Calm - N/A   Clear
7:53 AM 30.9 °F 27.5 °F 12.9 °F 47% 30.23 in 10.0 mi North 3.5 mph - N/A   Clear
8:53 AM 36.0 °F 33.3 °F 14.0 °F 41% 30.24 in 10.0 mi NNE 3.5 mph - N/A   Clear
9:53 AM 39.9 °F - 12.9 °F 33% 30.24 in 10.0 mi Calm Calm - N/A   Clear
10:53 AM 42.1 °F 37.1 °F 14.0 °F 32% 30.20 in 10.0 mi East 8.1 mph - N/A   Clear
11:53 AM 44.1 °F 39.5 °F 14.0 °F 30% 30.17 in 10.0 mi East 8.1 mph - N/A   Clear
12:53 PM 46.0 °F 43.1 °F 12.9 °F 26% 30.12 in 10.0 mi East 5.8 mph - N/A   Clear
1:53 PM 46.9 °F - 12.9 °F 25% 30.09 in 10.0 mi ESE 8.1 mph - N/A   Clear
2:53 PM 48.0 °F - 12.9 °F 24% 30.07 in 10.0 mi East 3.5 mph - N/A   Clear
3:53 PM 48.0 °F - 12.0 °F 24% 30.05 in 10.0 mi East 4.6 mph - N/A   Clear
4:53 PM 45.0 °F 41.8 °F 12.0 °F 26% 30.04 in 10.0 mi ENE 5.8 mph - N/A   Clear
5:53 PM 43.0 °F 41.3 °F 12.9 °F 30% 30.04 in 10.0 mi East 3.5 mph - N/A   Clear
6:53 PM 42.1 °F 40.2 °F 12.9 °F 31% 30.01 in 10.0 mi South 3.5 mph - N/A   Clear
7:53 PM 39.0 °F - 14.0 °F 36% 29.99 in 10.0 mi Calm Calm - N/A   Clear
8:53 PM 39.0 °F 33.4 °F 15.1 °F 38% 29.96 in 10.0 mi NE 8.1 mph - N/A   Clear
9:53 PM 41.0 °F 36.4 °F 14.0 °F 33% 29.91 in 10.0 mi NE 6.9 mph - N/A   Clear
10:53 PM 41.0 °F 34.7 °F 12.9 °F 32% 30.00 in 10.0 mi ENE 10.4 mph - N/A   Clear
11:53 PM 37.0 °F - 14.0 °F 39% 30.01 in 10.0 mi Calm Calm - N/A   Clear